[[{"header":{"parameterUnit":"m.s-1","parameterCategory":1,"la1":30.2991,"la2":30.254,"lo1":-89.0895,"lo2":-89.0444,"dy":0.0017,"dx":0.0017,"nx":28,"ny":28,"refTime":"2023-08-10T09:00:00:Z","depth":0,"parameterNumber":2,"parameterNumberName":"U-component_of_WINDS"},"data":[0,0,0,0,0,0,0,0,0,0,0,0,0,0,0,0,0,0,0,0,0,0,0,0,0,0,0,0,0,0,0,0,0,0,0,0,0,0,0,0,0,0,0,0,0,0,0,0,0,0,0,0,0,0,0,0,0,0,1.9897,1.9898,0,2.0003,2.0004,2.0006,1.997,1.9968,1.9965,1.9963,2.0081,2.0086,2.0091,0,0,0,0,0,0,0,0,0,0,0,0,0,1.9674,1.9678,1.9897,1.9898,1.9899,2.0003,2.0004,2.0006,1.9971,1.9968,1.9965,1.9962,2.0079,2.0085,2.0092,0,0,0,0,0,0,0,0,0,0,0,0,0,1.9775,1.968,1.9897,1.9894,1.9895,2.0003,2.0004,2.0006,1.9971,1.9968,1.9964,1.9961,2.0077,2.0085,2.0093,2.0212,0,0,2.0117,2.012,0,0,0,0,0,0,0,0,1.9769,1.9783,1.9893,1.9894,1.9896,1.997,1.9969,2.0076,1.9972,1.9943,1.9963,1.9959,2.0047,2.0057,2.0085,2.0217,2.0222,2.0118,2.0122,2.0126,2.0128,0,0,0,0,0,0,0,1.9762,1.9778,1.9939,1.9895,1.9896,1.9891,1.9902,1.9989,2.0014,1.9945,1.9942,1.9955,2.0047,2.0078,2.0088,2.0224,2.0117,2.0124,2.0129,2.0133,2.0464,2.0468,0,0,0,0,0,0,1.9753,1.9773,1.9936,1.9942,1.9822,1.9898,1.991,1.995,2.0012,2.0018,1.9958,1.9953,2.0066,2.0079,2.0092,2.0238,2.0126,2.0133,2.0138,2.046,2.0465,2.0469,0,0,0,0,0,0,1.9748,1.9768,1.9931,1.9857,1.9877,1.9905,1.9951,1.9953,1.9984,2.0022,2.0027,1.9984,2.0064,2.0081,2.0183,2.0242,2.0137,2.0144,2.0455,2.0462,2.0467,2.053,0,0,0,0,0,0,1.9742,1.9766,1.9809,1.9858,1.9881,2.0017,1.9954,1.9958,1.9996,1.9991,2.0048,2.0054,2.0062,2.0171,2.0191,2.0251,2.015,2.045,2.0458,2.0465,2.0523,2.0537,2.055,0,0,0,0,0,1.9734,1.9824,1.9811,1.9831,1.9935,2.0021,2.0034,2.0039,2.0001,2.0047,2.0072,2.0052,2.0232,2.0182,2.0203,2.0267,2.0446,2.0456,2.0465,2.0517,2.0535,2.055,0,0,0,0,0,0,1.9783,1.983,1.9817,1.9924,1.9968,2.0014,2.0071,2.0058,2.0116,2.0109,2.0115,2.0129,2.0234,2.0261,2.0204,2.0388,2.0334,2.0348,2.0366,2.0384,2.0397,2.0389,2.0157,0,0,0,0,0,1.9806,1.9869,1.9907,1.9998,2.0021,2.0043,2.008,2.008,2.0128,2.0147,2.018,2.0229,2.0297,2.0342,2.0406,2.0527,2.0541,2.0581,2.0595,2.0606,2.0618,2.0688,2.0708,2.0499,2.0499,2.0499,0,0,1.9855,1.9888,1.9927,2.0009,2.0043,2.0112,2.0059,2.0132,2.0184,2.0159,2.0257,2.0283,2.0339,2.0452,2.0503,2.0478,2.0679,2.0618,2.0626,2.0633,2.0699,2.0719,2.0737,2.0505,2.0504,2.0503,0,0,1.9978,2.0008,2.0089,2.0124,2.0177,2.0191,2.021,2.0259,2.0275,2.0373,2.0357,2.0421,2.0536,2.0578,2.0614,2.0757,2.0743,2.0779,2.085,2.0918,2.0934,2.0949,2.1003,2.1022,2.079,2.0791,2.0791,0,2.0033,2.0131,2.0133,2.0208,2.0247,2.0225,2.031,2.0345,2.0417,2.0446,2.0415,2.0562,2.0598,2.0722,2.0757,2.0786,2.0812,2.0772,2.0931,2.0946,2.096,2.1011,2.1031,2.0795,2.0794,2.0794,2.0794,0,2.0198,2.0267,2.0327,2.0394,2.044,2.0519,2.0536,2.0583,2.058,2.0599,2.0702,2.0744,2.0818,2.0848,2.0846,2.0973,2.0956,2.0928,2.0875,2.0984,2.1032,2.1052,2.0801,2.0799,2.0798,2.0797,0,0,2.0353,2.0422,2.0444,2.0477,2.0534,2.059,2.0671,2.0741,2.0782,2.0834,2.0904,2.1004,2.098,2.1021,2.1025,2.1084,2.1199,2.105,2.1052,2.1078,2.1345,2.1367,2.1389,2.1189,2.1193,2.1196,2.1341,0,2.0483,2.0622,2.0627,2.0755,2.0822,2.0804,2.0875,2.0921,2.0941,2.1004,2.1028,2.11,2.106,2.1086,2.1144,2.1173,2.1253,2.1162,2.1259,2.1262,2.1246,2.1414,2.1436,2.1571,2.136,2.1363,2.1366,0,2.0652,2.0708,2.0842,2.0893,2.0921,2.0985,2.1052,2.111,2.1163,2.1175,2.1222,2.1218,2.1305,2.1248,2.1371,2.1309,2.1349,2.137,2.1376,2.1386,2.1321,2.1431,2.1614,2.1635,2.1395,2.1393,2.1391,0,2.0756,2.0864,2.0959,2.0987,2.1048,2.1094,2.1122,2.1171,2.1215,2.1275,2.1304,2.1374,2.1413,2.1469,2.1486,2.1442,2.1609,2.1552,2.1624,2.1624,2.1661,2.1659,2.1855,2.1684,2.1684,2.1684,2.1683,0,2.0901,2.0985,2.1007,2.1065,2.116,2.1167,2.1262,2.1288,2.1333,2.1399,2.1389,2.1452,2.147,2.1538,2.1552,2.1653,2.1671,2.1685,2.1688,2.1687,2.1685,2.1714,2.1706,2.1689,2.1688,2.1687,2.1686,0,2.1032,2.105,2.1153,2.1203,2.1218,2.1286,2.133,2.1389,2.1409,2.1494,2.1514,2.1547,2.1627,2.1648,2.1744,2.1754,2.1874,2.1868,2.1856,2.1856,2.1928,2.1922,2.2151,2.2183,2.1989,2.1991,2.1992,0,2.1124,2.1188,2.1245,2.1288,2.1318,2.1386,2.1431,2.1442,2.1489,2.1556,2.1608,2.1686,2.1748,2.1878,2.1912,2.1987,2.1983,2.2059,2.1995,2.1993,2.1988,2.1984,2.1993,2.2071,2.2073,2.2075,2.2076,0,2.1287,2.1293,2.1355,2.1422,2.1474,2.1528,2.158,2.1616,2.1635,2.169,2.177,2.1819,2.1917,2.1996,2.2072,2.2105,2.2096,2.2096,2.2117,2.2117,2.2109,2.2117,2.1891,2.2091,2.2089,2.2088,2.2088,2.2087,2.1403,2.146,2.151,2.1581,2.1621,2.167,2.1728,2.1756,2.1822,2.1901,2.1904,2.1993,2.2049,2.2149,2.2187,2.2259,2.2237,2.2267,2.2275,2.2282,2.229,2.2096,2.2273,2.2272,2.2272,2.2272,2.2271,0,2.1567,2.1598,2.1663,2.1736,2.1793,2.1776,2.1834,2.1884,2.1961,2.2012,2.2074,2.2169,2.2247,2.2288,2.2366,2.2416,2.2414,2.2437,2.2434,2.2443,2.2303,2.2278,2.2437,2.2437,2.2437,2.2437,2.2437,2.2437,2.1659,2.1756,2.1769,2.1887,2.1919,2.2004,2.2038,2.2086,2.2127,2.2232,2.2296,2.2321,2.237,2.2453,2.2525,2.2535,2.2566,2.2591,2.26,2.2469,2.2452,2.2436,2.2413,2.2597,2.2597,2.2733,2.2735,2.2736]},{"header":{"parameterUnit":"m.s-1","parameterCategory":1,"la1":30.2991,"la2":30.254,"lo1":-89.0895,"lo2":-89.0444,"dy":0.0017,"dx":0.0017,"nx":28,"ny":28,"refTime":"2023-08-10T09:00:00:Z","depth":0,"parameterNumber":3,"parameterNumberName":"V-component_of_WINDS"},"data":[0,0,0,0,0,0,0,0,0,0,0,0,0,0,0,0,0,0,0,0,0,0,0,0,0,0,0,0,0,0,0,0,0,0,0,0,0,0,0,0,0,0,0,0,0,0,0,0,0,0,0,0,0,0,0,0,0,0,5.7892,5.7894,0,5.8143,5.8146,5.8149,5.8178,5.8176,5.8173,5.8171,5.8419,5.8427,5.8436,0,0,0,0,0,0,0,0,0,0,0,0,0,5.7427,5.7435,5.7891,5.7895,5.7898,5.8143,5.8146,5.815,5.8179,5.8176,5.8173,5.817,5.8416,5.8426,5.8437,0,0,0,0,0,0,0,0,0,0,0,0,0,5.7648,5.7438,5.7891,5.7942,5.7949,5.8142,5.8146,5.8151,5.8179,5.8176,5.8172,5.8169,5.8412,5.8425,5.8438,5.8594,0,0,5.8479,5.8485,0,0,0,0,0,0,0,0,5.7636,5.7665,5.7931,5.7939,5.7947,5.8126,5.8073,5.8299,5.818,5.8092,5.8171,5.8167,5.8323,5.8344,5.8399,5.8606,5.8617,5.848,5.8488,5.8494,5.8498,0,0,0,0,0,0,0,5.762,5.7654,5.7991,5.7935,5.7945,5.7949,5.7977,5.8116,5.8225,5.8099,5.8102,5.8132,5.8327,5.8386,5.8405,5.862,5.848,5.8492,5.85,5.8505,5.8968,5.8972,0,0,0,0,0,0,5.7597,5.7641,5.7983,5.7998,5.7779,5.7961,5.7991,5.8072,5.8224,5.8243,5.8135,5.8132,5.8365,5.8389,5.8414,5.8608,5.8494,5.8506,5.8514,5.8964,5.8969,5.8974,0,0,0,0,0,0,5.7587,5.7627,5.7973,5.7821,5.7865,5.7973,5.8063,5.8079,5.8138,5.8251,5.8269,5.8176,5.8363,5.8395,5.855,5.8616,5.8512,5.8524,5.8959,5.8965,5.8971,5.8996,0,0,0,0,0,0,5.7573,5.7623,5.7686,5.7822,5.7873,5.8108,5.8067,5.8087,5.8162,5.8161,5.8294,5.8312,5.8363,5.853,5.8563,5.8633,5.8535,5.8953,5.8962,5.8969,5.8989,5.9002,5.9013,0,0,0,0,0,5.7557,5.768,5.7689,5.773,5.7955,5.8112,5.8141,5.8199,5.8167,5.823,5.8302,5.8308,5.8604,5.8546,5.8583,5.8658,5.8949,5.8959,5.8969,5.8984,5.9,5.9013,0,0,0,0,0,0,5.7545,5.7699,5.771,5.7882,5.7984,5.8116,5.8197,5.8213,5.8324,5.8318,5.8382,5.8412,5.8564,5.8626,5.8559,5.8817,5.8773,5.8791,5.8772,5.8787,5.8799,5.8781,5.8546,0,0,0,0,0,5.7563,5.7681,5.7808,5.7947,5.7998,5.8089,5.8159,5.8196,5.8303,5.8345,5.8428,5.8529,5.8644,5.8719,5.8831,5.8998,5.9027,5.9067,5.9079,5.9088,5.9103,5.9196,5.9216,5.9006,5.9005,5.9005,0,0,5.76,5.7699,5.7769,5.7947,5.8031,5.8149,5.8125,5.825,5.8338,5.8363,5.8516,5.858,5.8696,5.8858,5.8934,5.8914,5.9167,5.9101,5.9107,5.9117,5.9208,5.9228,5.9245,5.9012,5.9011,5.901,0,0,5.773,5.7816,5.7943,5.8028,5.8155,5.8215,5.8245,5.8376,5.8421,5.8576,5.8597,5.87,5.8898,5.8981,5.9048,5.9209,5.9218,5.9243,5.9305,5.9395,5.9412,5.9427,5.9485,5.9504,5.9257,5.9257,5.9257,0,5.7759,5.7942,5.8005,5.8132,5.8209,5.824,5.8368,5.8445,5.8601,5.8652,5.8629,5.888,5.8959,5.9141,5.9181,5.9234,5.9269,5.9229,5.9405,5.942,5.9435,5.9491,5.9513,5.926,5.9259,5.9259,5.9259,0,5.7972,5.8098,5.8184,5.8339,5.8426,5.8552,5.8631,5.8711,5.8739,5.8801,5.8957,5.9055,5.9188,5.9234,5.9261,5.942,5.9404,5.9392,5.9349,5.9457,5.951,5.9532,5.9263,5.9262,5.9261,5.9261,0,0,5.8102,5.8291,5.8322,5.8393,5.8536,5.8633,5.8759,5.8893,5.896,5.9066,5.9173,5.934,5.9331,5.9407,5.9444,5.9522,5.9645,5.9501,5.9505,5.9525,5.9825,5.9834,5.9858,5.9651,5.9655,5.9659,5.9816,0,5.8248,5.8479,5.854,5.8734,5.8851,5.8882,5.8992,5.909,5.915,5.9255,5.932,5.9438,5.9416,5.9463,5.9542,5.9613,5.9706,5.9602,5.9749,5.9754,5.9721,5.9887,5.9897,6.004,5.9837,5.9841,5.9843,0,5.845,5.8566,5.8773,5.8903,5.8954,5.9052,5.918,5.9281,5.9392,5.943,5.9516,5.9546,5.9676,5.9626,5.9805,5.9733,5.9796,5.984,5.9847,5.9863,5.9806,5.9908,6.0087,6.0109,5.9877,5.9874,5.9872,0,5.8526,5.8731,5.8883,5.8942,5.9097,5.9165,5.9232,5.934,5.9416,5.9527,5.9577,5.9699,5.9766,5.9859,5.9919,5.9877,6.0094,6.0048,6.0127,6.0126,6.0172,6.0169,6.0365,6.0211,6.0211,6.021,6.021,0,5.8684,5.881,5.8919,5.9012,5.9154,5.9221,5.9357,5.9424,5.952,5.9625,5.9656,5.9753,5.9827,5.9933,5.9981,6.0122,6.0151,6.0184,6.0196,6.0183,6.0178,6.0225,6.0217,6.0216,6.0215,6.0214,6.0213,0,5.8792,5.8871,5.9038,5.9172,5.9208,5.9306,5.9419,5.9509,5.957,5.9702,5.9736,5.9831,5.9958,6.0028,6.0185,6.0217,6.0375,6.038,6.0339,6.0344,6.042,6.0412,6.0654,6.0689,6.0511,6.0512,6.0513,0,5.8889,5.8987,5.9132,5.9207,5.9276,5.9394,5.9474,5.9542,5.9623,5.9758,5.9831,5.996,6.0068,6.0267,6.0348,6.0469,6.0478,6.0554,6.0496,6.048,6.048,6.0474,6.0484,6.0564,6.0566,6.0567,6.0569,0,5.9052,5.9087,5.9202,5.9333,5.9428,5.9532,5.9635,5.9693,5.9778,5.9867,5.9999,6.0082,6.0245,6.0372,6.0499,6.0564,6.058,6.0586,6.0611,6.0599,6.0572,6.0589,6.0368,6.0581,6.0579,6.0579,6.0578,6.0577,5.9159,5.9248,5.9365,5.9493,5.9578,5.9674,5.9767,5.9841,5.9953,6.0094,6.0126,6.0265,6.0372,6.0545,6.0613,6.0721,6.0706,6.0742,6.0751,6.0759,6.0763,6.0554,6.0744,6.0743,6.0743,6.0743,6.0743,0,5.9325,5.9402,5.9519,5.9665,5.9765,5.9775,5.9889,5.9972,6.0095,6.0195,6.0302,6.0453,6.0576,6.0667,6.0793,6.0861,6.0872,6.0892,6.0888,6.0903,6.0768,6.0735,6.0882,6.0882,6.0882,6.0882,6.0881,6.0881,5.9423,5.9576,5.9624,5.9818,5.9893,6.0033,6.0098,6.0186,6.0267,6.0436,6.054,6.06,6.0697,6.083,6.0943,6.0966,6.1011,6.103,6.1054,6.0927,6.0912,6.0898,6.0867,6.1039,6.104,6.1181,6.1182,6.1183]}]]